Total_Precipitation_Accumulation
0.04 0.08 0.19 0.37 1.02 1.20 0.99 0.59 0.44 0.35 0.35 0.38 0.44 0.43 0.43 0.51 0.66 1.13 0.62 0.22 0.11 0.10 0.16 0.45 0.63 0.61 0.61 0.65 0.66 0.65 0.67 0.68 0.76 0.75 0.69 0.62 0.62 0.72 0.81 0.86 0.83 0.93 0.92 0.83 0.85 0.81 0.80 0.83 0.86
0.07 0.10 0.24 0.60 1.04 1.06 0.91 0.47 0.35 0.32 0.30 0.41 0.47 0.39 0.34 0.36 0.27 0.25 0.27 0.23 0.13 0.08 0.12 0.31 0.54 0.55 0.50 0.53 0.57 0.58 0.57 0.56 0.66 0.69 0.67 0.62 0.64 0.75 0.85 0.82 0.79 0.92 0.86 0.84 0.85 0.84 0.76 0.72 0.77
0.09 0.14 0.38 0.76 0.65 0.60 0.57 0.33 0.29 0.35 0.44 0.62 0.72 0.48 0.39 0.46 0.31 0.19 0.15 0.14 0.14 0.10 0.11 0.24 0.43 0.45 0.41 0.42 0.52 0.54 0.47 0.51 0.66 0.72 0.69 0.65 0.71 0.78 0.83 0.81 0.85 0.94 0.97 0.93 0.91 0.86 0.74 0.71 0.73
0.09 0.18 0.40 0.48 0.27 0.25 0.32 0.23 0.29 0.39 0.68 0.80 0.82 0.65 0.50 0.45 0.33 0.23 0.13 0.11 0.12 0.11 0.12 0.21 0.34 0.35 0.38 0.40 0.48 0.48 0.50 0.54 0.66 0.78 0.72 0.66 0.71 0.84 0.91 0.90 0.91 0.86 0.92 0.88 0.87 0.77 0.72 0.66 0.66
0.08 0.22 0.45 0.33 0.14 0.13 0.16 0.14 0.21 0.34 0.59 0.80 0.80 0.85 0.76 0.61 0.45 0.30 0.19 0.12 0.10 0.10 0.14 0.18 0.37 0.43 0.47 0.49 0.48 0.50 0.50 0.50 0.62 0.71 0.64 0.67 0.81 0.96 1.05 1.00 0.93 0.79 0.83 0.79 0.75 0.75 0.74 0.70 0.70
0.14 0.25 0.36 0.26 0.14 0.11 0.12 0.13 0.21 0.41 0.62 0.79 0.94 1.02 0.86 0.64 0.48 0.33 0.24 0.22 0.24 0.12 0.14 0.21 0.34 0.42 0.48 0.52 0.52 0.54 0.52 0.52 0.61 0.74 0.69 0.72 0.88 0.99 1.00 1.01 0.94 0.81 0.76 0.69 0.69 0.68 0.67 0.69 0.73
0.12 0.19 0.23 0.18 0.14 0.10 0.11 0.16 0.26 0.41 0.53 0.82 1.09 1.13 0.86 0.76 0.60 0.41 0.41 0.37 0.63 0.35 0.26 0.26 0.34 0.49 0.58 0.66 0.66 0.62 0.59 0.57 0.67 0.81 0.74 0.70 0.72 0.83 0.86 0.93 0.88 0.81 0.76 0.68 0.69 0.63 0.62 0.68 0.70
0.08 0.10 0.13 0.13 0.08 0.07 0.10 0.16 0.27 0.39 0.66 0.93 0.96 1.03 1.02 0.76 0.68 0.65 0.69 0.65 0.79 0.66 0.42 0.37 0.40 0.55 0.63 0.67 0.66 0.66 0.61 0.62 0.65 0.74 0.75 0.79 0.77 0.82 0.85 0.87 0.88 0.82 0.81 0.73 0.74 0.70 0.67 0.73 0.74
0.05 0.09 0.14 0.11 0.04 0.06 0.12 0.21 0.28 0.34 0.55 0.73 0.81 0.77 0.61 0.59 0.74 0.85 0.92 0.97 1.03 0.98 0.84 0.76 0.67 0.62 0.72 0.72 0.68 0.79 0.79 0.82 0.83 0.89 1.01 1.14 1.30 1.24 1.29 1.09 1.05 0.95 0.99 1.04 1.00 0.97 0.91 0.91 0.85
0.03 0.09 0.07 0.03 0.02 0.05 0.10 0.19 0.32 0.41 0.70 1.06 1.09 1.12 0.78 0.80 0.97 1.04 1.05 1.02 1.17 1.28 1.21 1.23 1.00 0.78 0.76 0.73 0.97 1.28 1.26 1.34 1.39 1.46 1.52 1.77 1.81 1.86 1.47 1.44 1.46 1.44 1.57 1.56 1.58 1.66 1.40 1.13 0.96
0.02 0.03 0.02 0.01 0.01 0.02 0.05 0.11 0.15 0.35 0.77 1.21 1.27 1.23 1.03 1.01 1.13 1.25 1.31 1.43 1.56 1.73 1.51 1.32 1.29 1.21 1.23 1.26 1.28 1.41 1.67 1.82 1.89 1.96 2.02 2.21 1.93 1.80 1.65 1.82 2.00 1.96 1.85 1.70 1.93 2.11 1.74 1.65 1.81
0.01 0.01 0.01 0.01 0.01 0.02 0.04 0.11 0.21 0.36 0.79 1.07 0.98 0.86 0.89 1.10 1.29 1.48 1.84 2.07 2.25 2.37 2.30 2.19 1.97 1.82 1.85 1.70 1.51 1.46 1.52 1.62 1.71 1.85 1.94 2.12 2.26 2.15 2.19 2.35 2.15 2.08 2.09 2.30 2.24 2.43 2.28 2.11 1.96
0.01 0.01 0.01 0.01 0.01 0.02 0.06 0.16 0.29 0.42 0.69 0.67 0.59 0.66 1.05 1.31 1.54 1.86 2.10 2.32 2.54 2.90 3.15 3.58 3.33 2.71 2.36 2.09 1.81 1.48 1.48 1.37 1.33 1.46 1.73 1.89 2.07 2.21 2.34 2.19 2.07 1.80 1.97 2.24 2.36 2.13 2.34 2.31 2.30
0.01 0.01 0.03 0.03 0.03 0.04 0.09 0.14 0.37 0.48 0.58 0.65 0.63 0.92 1.38 1.87 2.07 2.31 2.61 3.01 3.31 3.74 3.77 3.91 4.27 3.62 2.86 2.35 2.01 1.69 1.42 1.43 1.44 1.55 1.53 1.71 1.91 1.98 2.04 1.98 1.96 1.87 1.94 2.12 2.14 2.13 2.39 2.49 2.43
0.01 0.04 0.11 0.11 0.07 0.07 0.12 0.28 0.48 0.62 0.64 0.85 0.91 1.14 1.69 2.32 2.33 2.62 2.92 3.41 3.87 4.33 4.45 4.51 4.71 4.28 3.70 3.13 2.53 1.99 1.73 1.50 1.57 1.68 1.49 1.49 1.65 1.71 1.79 1.82 1.77 1.84 1.80 1.82 1.81 1.89 2.11 2.12 2.07
0.02 0.09 0.25 0.20 0.10 0.10 0.18 0.59 0.77 0.68 0.66 0.94 1.16 1.39 1.86 2.51 2.56 2.88 3.34 3.88 4.58 5.00 5.23 5.25 5.00 4.81 4.31 3.67 3.08 2.63 2.32 2.01 1.81 1.70 1.52 1.34 1.41 1.46 1.57 1.50 1.49 1.47 1.44 1.45 1.58 1.66 1.84 2.00 2.06
0.04 0.09 0.23 0.23 0.16 0.13 0.22 0.67 0.71 0.48 0.64 0.92 1.24 1.53 1.83 2.17 2.66 3.23 3.73 4.32 5.24 6.18 6.60 6.36 5.68 5.16 4.58 3.97 3.47 3.25 3.02 2.59 2.15 1.99 1.78 1.58 1.40 1.35 1.44 1.46 1.46 1.22 1.26 1.29 1.25 1.49 1.69 1.93 1.97
0.04 0.08 0.17 0.26 0.19 0.23 0.33 0.44 0.55 0.61 0.78 1.00 1.21 1.38 1.66 1.96 2.38 3.08 3.66 4.35 5.32 6.52 7.21 7.09 6.39 5.50 4.77 4.31 3.84 3.60 3.29 2.83 2.31 2.09 1.96 1.72 1.58 1.37 1.33 1.27 1.20 1.06 1.19 1.35 1.44 1.77 1.74 1.68 1.70
0.04 0.07 0.15 0.23 0.19 0.26 0.34 0.45 0.60 0.76 0.99 1.02 1.10 1.21 1.43 1.73 2.14 2.82 3.51 4.08 4.74 5.50 6.08 5.93 5.30 4.79 4.18 3.62 3.06 2.91 2.68 2.41 2.15 1.92 1.68 1.65 1.58 1.38 1.35 1.26 1.36 1.15 1.16 1.19 1.19 1.39 1.49 1.41 1.45
0.04 0.08 0.13 0.19 0.16 0.16 0.28 0.55 0.70 0.79 0.95 0.91 0.91 0.94 1.13 1.48 2.09 2.88 3.50 3.70 3.71 3.99 4.25 3.75 3.54 3.51 3.09 2.76 2.67 2.51 2.31 2.08 1.87 1.73 1.65 1.37 1.33 1.26 1.19 1.33 1.27 1.21 1.26 1.19 1.21 1.37 1.47 1.44 1.47
0.07 0.09 0.10 0.16 0.17 0.23 0.37 0.71 0.93 0.86 0.85 0.73 0.71 0.91 1.38 1.77 2.21 2.73 2.90 2.91 2.80 2.79 2.77 2.55 2.48 2.77 2.68 2.62 2.53 2.43 2.38 2.29 2.03 1.69 1.61 1.32 1.16 1.13 1.21 1.21 1.27 1.31 1.11 1.23 1.33 1.30 1.36 1.40 1.35
0.07 0.06 0.04 0.05 0.12 0.35 0.52 0.93 1.10 1.01 0.95 0.68 0.72 1.09 1.59 1.91 2.17 2.17 1.78 1.66 1.81 1.90 1.99 2.24 2.31 2.42 2.33 2.37 2.16 1.95 1.81 1.69 1.59 1.51 1.52 1.49 1.29 1.16 1.09 1.13 1.31 1.34 1.17 1.34 1.07 1.16 1.36 1.41 1.25
0.04 0.04 0.03 0.06 0.15 0.39 0.66 1.08 1.27 1.07 0.88 0.63 0.60 0.68 1.05 1.26 1.23 1.03 0.89 0.97 1.21 1.46 1.70 2.07 2.15 2.18 2.07 2.02 2.02 2.05 1.93 1.89 1.75 1.67 1.77 1.74 1.69 1.47 1.18 1.13 1.30 1.39 1.33 1.36 1.26 1.48 1.33 1.23 1.17
0.03 0.04 0.10 0.20 0.38 0.83 0.88 0.96 1.19 1.02 0.81 0.64 0.48 0.47 0.71 0.75 0.60 0.62 0.70 0.89 1.13 1.30 1.41 1.62 1.79 1.98 2.02 2.03 2.09 2.04 2.00 2.04 1.86 1.69 1.59 1.57 1.60 1.54 1.42 1.33 1.47 1.50 1.43 1.42 1.36 1.43 1.38 1.35 1.33
0.03 0.05 0.26 0.60 0.90 1.02 0.75 0.88 1.17 0.78 0.53 0.43 0.32 0.28 0.31 0.35 0.44 0.60 0.66 0.86 0.98 1.09 1.11 1.21 1.34 1.55 1.68 1.77 1.89 1.94 1.97 2.00 1.81 1.68 1.54 1.50 1.41 1.37 1.47 1.51 1.61 1.51 1.48 1.42 1.42 1.44 1.47 1.51 1.52
0.04 0.04 0.10 0.22 0.34 0.54 0.70 1.08 1.16 0.75 0.41 0.25 0.20 0.21 0.20 0.24 0.30 0.35 0.39 0.48 0.62 0.79 0.98 1.13 1.18 1.21 1.24 1.30 1.49 1.68 1.72 1.73 1.66 1.71 1.50 1.41 1.33 1.34 1.47 1.52 1.43 1.40 1.39 1.32 1.43 1.34 1.30 1.34 1.41
0.04 0.03 0.04 0.05 0.08 0.31 0.74 1.02 0.93 0.59 0.40 0.29 0.24 0.25 0.22 0.23 0.30 0.26 0.25 0.32 0.41 0.47 0.62 0.84 0.93 0.95 0.97 1.05 1.20 1.30 1.36 1.47 1.59 1.56 1.39 1.24 1.28 1.31 1.34 1.28 1.27 1.29 1.30 1.39 1.50 1.42 1.35 1.39 1.31
0.04 0.03 0.03 0.05 0.10 0.23 0.57 1.05 1.20 0.83 0.57 0.40 0.33 0.26 0.23 0.24 0.25 0.27 0.28 0.29 0.32 0.33 0.45 0.62 0.77 0.82 0.86 0.93 1.01 0.99 1.13 1.24 1.38 1.41 1.35 1.23 1.19 1.27 1.31 1.26 1.26 1.26 1.18 1.24 1.41 1.37 1.41 1.48 1.46
0.05 0.04 0.05 0.06 0.07 0.15 0.42 0.67 0.68 0.72 0.59 0.40 0.33 0.28 0.24 0.25 0.26 0.31 0.27 0.31 0.28 0.28 0.35 0.46 0.64 0.74 0.73 0.79 0.87 0.96 1.07 1.23 1.30 1.29 1.33 1.29 1.26 1.28 1.31 1.32 1.34 1.31 1.26 1.28 1.36 1.31 1.40 1.48 1.58
0.07 0.07 0.07 0.08 0.08 0.11 0.20 0.34 0.38 0.42 0.49 0.55 0.42 0.34 0.35 0.38 0.31 0.30 0.27 0.31 0.25 0.27 0.32 0.40 0.48 0.57 0.62 0.71 0.80 0.91 1.00 1.10 1.21 1.19 1.25 1.34 1.32 1.30 1.28 1.31 1.39 1.31 1.30 1.33 1.26 1.27 1.35 1.46 1.53